Content
SEND FEEDBACK

Daily
Averages
Monthly
Summary
Canada

VANCOUVER, BRITISH COLUMBIA


Home > North America > Canada > British Columbia
Elevation: 7 feet     Latitude: 49 11N     Longitude: 123 10W

WEATHER
 
SELECT A DAY
Number of Records: 252,960;   Date Range: 5/15/97 - 10/20/14
 
SHARE

PRINT THIS DATA

[ ← Previous Day ]
WEATHER ALMANAC - JANUARY 6, 2013
[ Next Day → ]
[ °C ]   °F
Weather ElementAverageHighLow
Temperature42.2 °F44.6 °F (12:35 pm)41 °F (12:35 am)
Dewpoint39.5 °F41 °F (4:15 am)37.4 °F (12:35 am)
Humidity89.8 %93 % (2:35 am)81 % (12:35 pm)
Barometer30.06 in30.12 in (9:35 am)29.92 in (11:35 pm)
Wind Speed6.5 mph15 mph (11:35 pm)
Wind Gust24.2 mph (11:35 pm)
Weather ElementAverage
Visibility8.2 mi
Wind DirectionSSE (156.9 °)

Weather ElementTotal
Precipitation0.15 in
Heating Degree Days22.2 (Base 65)
Averaged from 65 records on January 6, 2013
WEATHER CONDITIONS BREAKOUT
WIND DIRECTION BREAKOUT
WEATHER BY HOUR - JANUARY 6, 2013
[ °C ]   °F
Local TimeTemperatureDewpointHumidityBarometerVisibilityWind DirectionWind SpeedGust SpeedPrecipitationEventsConditions
12:35 AM41.0 °F37.4 °F87 %30.08 in10.0 miSouth (190°)6.9 mphClear
12:55 AM41.0 °F37.4 °F87 %30.09 in10.0 miSSW (200°)8.1 mphClear
1:15 AM41.0 °F37.4 °F87 %30.09 in10.0 miSSW (200°)6.9 mphClear
1:35 AM41.0 °F37.4 °F87 %30.10 in10.0 miSouth (180°)5.8 mphClear
2:15 AM41.0 °F37.4 °F87 %30.11 in10.0 miNorthClear
2:35 AM41.0 °F39.2 °F93 %30.11 in10.0 miSSE (160°)3.5 mphPartly Cloudy
2:55 AM41.0 °F39.2 °F93 %30.11 in10.0 miSSW (200°)6.9 mphPartly Cloudy
3:15 AM41.0 °F39.2 °F93 %30.10 in10.0 miSSW (200°)6.9 mphMostly Cloudy
3:55 AM41.0 °F39.2 °F93 %30.11 in10.0 miSouth (170°)3.5 mphMostly Cloudy
4:15 AM42.8 °F41.0 °F93 %30.10 in10.0 miSouth (180°)3.5 mphMostly Cloudy
4:35 AM42.8 °F39.2 °F87 %30.11 in10.0 miSouth (190°)6.9 mphOvercast
4:55 AM42.8 °F39.2 °F87 %30.11 in10.0 miSouth (180°)6.9 mphOvercast
5:15 AM41.0 °F39.2 °F93 %30.10 in10.0 miSouth (180°)9.2 mphOvercast
5:35 AM41.0 °F39.2 °F93 %30.10 in10.0 miSouth (170°)6.9 mphMostly Cloudy
6:15 AM41.0 °F39.2 °F93 %30.09 in10.0 miSSW (200°)12.7 mphOvercast
6:35 AM41.0 °F39.2 °F93 %30.09 in10.0 miSouth (170°)4.6 mphMostly Cloudy
6:55 AM41.0 °F39.2 °F93 %30.10 in10.0 miSouth (170°)4.6 mphMostly Cloudy
7:15 AM41.0 °F39.2 °F93 %30.10 in10.0 miSouth (180°)5.8 mphScattered Clouds
7:35 AM41.0 °F39.2 °F93 %30.10 in10.0 miSouth (180°)6.9 mphClear
7:55 AM41.0 °F37.4 °F87 %30.11 in10.0 miSouth (190°)8.1 mphClear
8:15 AM41.0 °F39.2 °F93 %30.11 in10.0 miSouth (190°)11.5 mphClear
8:35 AM41.0 °F39.2 °F93 %30.11 in10.0 miSouth (170°)8.1 mphClear
9:15 AM41.0 °F39.2 °F93 %30.11 in10.0 miSouth (190°)10.4 mph16.1 mphPartly Cloudy
9:35 AM41.0 °F39.2 °F93 %30.12 in10.0 miSouth (190°)10.4 mphScattered Clouds
9:55 AM41.0 °F39.2 °F93 %30.12 in10.0 miSouth (180°)8.1 mphMostly Cloudy
10:15 AM42.8 °F39.2 °F87 %30.12 in10.0 miSouth (190°)8.1 mphPartly Cloudy
10:35 AM42.8 °F39.2 °F87 %30.12 in10.0 miSouth (180°)5.8 mphScattered Clouds
10:55 AM42.8 °F39.2 °F87 %30.12 in10.0 miSouth (170°)4.6 mphMostly Cloudy
11:15 AM42.8 °F39.2 °F87 %30.11 in10.0 miSouth (170°)5.8 mphMostly Cloudy
11:35 AM42.8 °F39.2 °F87 %30.10 in10.0 miSouth (170°)4.6 mphOvercast
11:55 AM42.8 °F39.2 °F87 %30.09 in10.0 miSouth (180°)8.1 mphMostly Cloudy
12:15 PM42.8 °F39.2 °F87 %30.09 in10.0 miSouth (180°)5.8 mphMostly Cloudy
12:35 PM44.6 °F39.2 °F81 %30.08 in10.0 miSouth (180°)6.9 mphMostly Cloudy
12:55 PM44.6 °F39.2 °F81 %30.08 in10.0 miSouth (180°)5.8 mphMostly Cloudy
1:15 PM44.6 °F39.2 °F81 %30.07 in10.0 miSouth (170°)4.6 mphMostly Cloudy
1:35 PM44.6 °F39.2 °F81 %30.07 in10.0 miSSE (150°)4.6 mphOvercast
1:55 PM44.6 °F39.2 °F81 %30.07 in10.0 miNorthOvercast
2:15 PM44.6 °F39.2 °F81 %30.07 in10.0 miNorthOvercast
2:55 PM44.6 °F39.2 °F81 %30.05 in9.0 miSSE (160°)3.5 mphMostly Cloudy
3:15 PM44.6 °F39.2 °F81 %30.05 in10.0 miSSE (160°)4.6 mphMostly Cloudy
3:35 PM44.6 °F39.2 °F81 %30.05 in5.0 miSouth (170°)3.5 mphRainLight Rain
3:55 PM44.6 °F41.0 °F87 %30.05 in6.0 miCalmRainLight Rain
4:15 PM42.8 °F41.0 °F93 %30.05 in4.0 miCalmRainLight Rain
4:35 PM42.8 °F41.0 °F93 %30.04 in5.0 miCalmRainLight Rain
4:55 PM42.8 °F41.0 °F93 %30.03 in6.0 miSSE (160°)3.5 mphRainLight Rain
5:15 PM42.8 °F41.0 °F93 %30.02 in5.0 miSouth (170°)4.6 mphRainLight Rain
5:35 PM42.8 °F41.0 °F93 %30.02 in6.0 miSouth (170°)3.5 mphRainLight Rain
5:55 PM42.8 °F41.0 °F93 %30.02 in7.0 miNorthRainLight Rain
6:15 PM42.8 °F41.0 °F93 %30.01 in8.0 miSSE (150°)3.5 mphRainLight Rain
6:35 PM42.8 °F41.0 °F93 %30.01 in7.0 miSSE (160°)3.5 mphRainLight Rain
6:55 PM42.8 °F41.0 °F93 %30.01 in6.0 miSouth (170°)6.9 mphRainLight Rain
7:15 PM42.8 °F41.0 °F93 %30.00 in5.0 miSouth (170°)4.6 mphRainRain
7:35 PM42.8 °F41.0 °F93 %30.00 in6.0 miSouth (170°)5.8 mphRainLight Rain
7:55 PM42.8 °F41.0 °F93 %29.99 in7.0 miSSE (160°)5.8 mphRainLight Rain
8:15 PM42.8 °F41.0 °F93 %29.98 in5.0 miSouth (170°)5.8 mphRainLight Rain
8:35 PM42.8 °F41.0 °F93 %29.98 in5.0 miSSE (160°)8.1 mphRainLight Rain
8:55 PM42.8 °F41.0 °F93 %29.97 in5.0 miSouth (170°)6.9 mph0.01 inRainLight Rain
9:15 PM41.0 °F39.2 °F93 %29.96 in4.0 miSouth (170°)9.2 mph19.6 mph0.01 inRainRain
9:35 PM41.0 °F39.2 °F93 %29.95 in4.0 miSouth (180°)10.4 mph18.4 mph0.03 inRainRain
9:55 PM41.0 °F39.2 °F93 %29.95 in3.0 miSouth (170°)8.1 mph16.1 mph0.04 inRainRain
10:15 PM41.0 °F39.2 °F93 %29.94 in3.0 miSouth (170°)10.4 mph19.6 mph0.01 inRainRain
10:35 PM41.0 °F39.2 °F93 %29.93 in4.0 miSouth (170°)9.2 mph18.4 mph0.02 inRainLight Rain
10:55 PM41.0 °F39.2 °F93 %29.93 in5.0 miSouth (180°)10.4 mph20.7 mph0.02 inRainLight Rain
11:15 PM41.0 °F39.2 °F93 %29.93 in5.0 miSouth (180°)12.7 mph21.9 mphRainLight Rain
11:35 PM41.0 °F37.4 °F87 %29.92 in5.0 miSouth (180°)15.0 mph24.2 mph0.01 inOvercast
Hourly data recorded from CZBB, located miles away from Vancouver, British Columbia







STORIES FROM OUR PARTNERS